Вернуться в каталог

STARLINK-34409

АктивенСвязьVLEO
NORAD 64485·PAYLOAD·🇺🇸 United States

Запущен Jun 23, 2025 с Cape Canaveral Space Force Station

Loading…

Ближайшие Пролёты (ближайшие 24 часа)

TLE

СвежийSource: CelesTrak SupGP

Эпоха: Sep 15, 2026, 02:58 UTC

1 64485C 25133P   26258.12409722  .00046075  00000+0  13602-2 0  2584
2 64485  53.1582 314.4984 0001252  93.0578 331.5935 15.34393342    15

Отслеживайте STARLINK-34409 в реальном времени с AllMySat

Download on the App Store